STARLINK-11640, 63314

Orbit data source: Space-Track

STARLINK-11640, 63314 is a payload satellite owned by SpaceX/Seattle (US) in LEO that was launched on Tue, 18 Mar 2025 UTC via an FALCON 9 launch vehicle from the Air Force Eastern Test Range (AFETR). Payload-class satellites include a variety of spacecraft equipped with specific instruments for various scientific and technological missions. These include communications satellites like Starlink; space stations such as the ISS; scientific satellites like the Hubble; Earth observation satellites from companies like Planet Labs, Umbra, and HawkEye 360; GPS; miniature CubeSats for education and research; and military/defense satellites.

Loading next visibility...
Identifier
63314, 2025-057H
Orbit
LEO
Country
Flag of USUS
Related business
Manufacturer
SpaceX/Seattle
Mission
Operational Commercial Communications
Bus & Motor
STARLINK V2MD, Unknown motor
Mass
960 kg wet, ~910 kg dry
Launch date (UTC)
2025-03-18 (1 year ago)
Launch vehicle
FALCON 9
Launch site
Air Force Eastern Test Range (AFETR)
Object type
Payload
Rocket body
Debris
Shape & HBR
Box + 2 Pan, 18.1 m
Radar Cross Section
36.964 m², Large (>1 m²)

Expand to show TLE details & history
Last TLE update: 8 hours ago

TLE from 8 hours ago
0 STARLINK-11640
1 63314U 25057H   26257.57862644  .00139166  00000-0  10692-2 0  9996
2 63314  43.0008 206.0858 0000392   6.2585 353.8287 15.70858216 86882
Epoch: 2026-09-14T13:53Z
TLE epoch observation values (Epoch: 2026-09-14T13:53:13.324Z)
Latitude
-0.00005°
Longitude
4.22332°
Altitude
355.952 km
Speed
7.698 km/s
True Right ascension
13h 44m 20s
True Declination
0° 00' 00"
Sunlit
Object was in daylight at epoch
Visualization orbit readout
Latitude
Unknown
Longitude
Unknown
Altitude
Unknown
Speed
Unknown
Apparent Right ascension
Unknown
Apparent Declination
Unknown
Sunlit
N/A
Visualization observer readout
Local Sidereal Time
14:21:02
Azimuth
Unknown
Elevation
Unknown
Doppler factor
Unknown
Orbital elements
Apogee altitude
358.689 km
Perigee altitude
358.16 km
Semi-major axis
6,736.561 km
Eccentricity
0.00004
Inclination
43.0008°
RAAN
206.0858°
Arg. of periapsis
6.2585°
True anomaly
353.82822°
Mean anomaly
353.8287°
Eccentric anomaly
353.82846°
Mean motion
3.92542 °/min
Orbital period
91.71 mins
BSTAR
0.0010692
Loading maneuver chart data...
Computing Atmospheric mass density...
Loading historical data...
Loading historical data...
Loading historical data...
Loading historical data...
Loading historical data...
Loading historical data...
Loading historical data...

Documentation

Showing up to 5 results
|